Weather Roundup
Issued by NWS Chicago, IL

Home | Current Version | Previous Version | Graphics & Text | Print | Product List | Glossary On
Versions: 1 2 3 4 5 6 7 8 9 10 11 12 13 14 15 16 17 18 19 20 21 22 23 24 25 26 27 28 29 30 31 32 33 34 35 36 37 38 39 40 41 42 43 44 45 46 47 48 49 50
000
NZUS59 KLOT 041713
HRRLOT

CHICAGO AREA WEATHER ROUNDUP
NATIONAL WEATHER SERVICE CHICAGO/ROMEOVILLE IL
1200 PM CDT FRI SEP 04 2015

NOTE: "FAIR" INDICATES FEW OR NO CLOUDS BELOW 12,000 FEET WITH NO
SIGNIFICANT WEATHER AND/OR OBSTRUCTIONS TO VISIBILITY.

* THESE STATIONS ARE NOT UNDER NWS QUALITY CONTROL. THEY ALSO MAY NOT
  REPORT WEATHER SUCH AS PRECIPITATION OR FOG.

ILZ005-006-012>014-019>023-041800-
NORTHEAST ILLINOIS

CITY           SKY/WX    TMP DP  RH WIND       PRES   REMARKS
OHARE          PTSUNNY   78  67  68 CALM      30.03S HX  80
MIDWAY         MOSUNNY   84  68  58 CALM      30.03S HX  87
AURORA         MOSUNNY   83  71  67 CALM      30.04S HX  87
LANSING*       PTSUNNY   82  69  66 CALM      30.03F HX  85
JOLIET*        MOSUNNY   85  71  64 CALM      30.02F HX  90
WAUKEGAN       CLOUDY    72  66  81 NE6       30.04S
DUPAGE AIRPORT SUNNY     83  70  64 VRB3      30.03F HX  87
WHEELING       SUNNY     76  67  73 CALM      30.05S
KANKAKEE*      PTSUNNY   85  72  66 CALM      30.03F HX  90
MORRIS*        MOSUNNY   83  72  69 CALM      30.02F HX  88
LEWIS AIRPORT* PTSUNNY   81  68  63 CALM      30.03F HX  84
NORTHERLY IS     N/A     73  67  81 N5          N/A
$$

WIZ051-052-058>065-066-070>072-041800-
SOUTHEAST WISCONSIN

CITY           SKY/WX    TMP DP  RH WIND       PRES   REMARKS
MILWAUKEE      MOSUNNY   74  65  73 NE6       30.04F
KENOSHA*       MOSUNNY   75  66  73 NW5       30.05F
RACINE*        PTSUNNY   76  64  66 NE7       30.06F
BURLINGTON     MOSUNNY   74  64  72 NE3       30.04F
WAUKESHA       MOSUNNY   73  64  73 CALM      30.06S
WEST BEND      CLOUDY    70  63  78 CALM      30.05F
$$

INZ001>003-010>013-019-020-041800-
NORTHWEST INDIANA

CITY           SKY/WX    TMP DP  RH WIND       PRES   REMARKS
GARY*          PTSUNNY   77  68  73 VRB6      30.04S
MICHIGAN CITY* NOT AVBL
RENSSELAER*    NOT AVBL
VALPARAISO     CLOUDY    81  71  71 W5        30.04S HX  85
$$

LMZ740>746-041800-
SOUTHERN LAKE MICHIGAN

STATION/POSITION TIME  SKY/WX   TEMP WIND        PRES    VSBY
                                AIR  DIR/SP/G
                 (UTC)          (F)  (DEG/KT/KT) (MB)    (MI)
HARRISON CRIB    1700            68  360/  9/ 10   N/A
BURNHAM HARBOR   1700            74   50/  6/  8   N/A
CALUMET HARBOR   1600            73   20/  6/  8   N/A
BURNS HARBOR     1600            72   20/  5/  6 1017.6R
MICHIGAN CITY    1600            74  340/  5/  6   N/A
$$

ABBREVIATIONS USED IN REMARKS
   TC - TEMPERATURE IN CELSIUS
  WCI - WIND CHILL INDEX
   HX - HEAT INDEX
  VSB - VISIBILITY
$$


USA.gov is the U.S. government's official web portal to all federal, state and local government web resources and services.